Terminal Aerodrome Forecast
Issued by NWS Sioux Falls, SD

Home | Current Version | Previous Version | Graphics & Text | Print | Product List | Glossary On
Versions: 1 2 3 4 5 6 7 8 9 10 11 12 13 14
000
FTUS43 KFSD 281107 AAA
TAFHON
TAF AMD
KHON 281107Z 2811/2906 20010KT P6SM SCT010 BKN060
      TEMPO 2811/2812 BKN010
     FM281300 29015G22KT P6SM SCT022 SCT150
     FM290200 28010KT P6SM SKC=

USA.gov is the U.S. government's official web portal to all federal, state and local government web resources and services.